Flight Track Log - Related Links

Times and Time Zones

All times are in EDT time to prevent confusion due to time zone crossing. See the FLG3729 flight status page for this flight to view local times or setup timezone preferences in your user account.

Time Position Orientation Groundspeed Altitude Reporting Facility
EDT Latitude Longitude Course Direction KTS MPH feet Rate Location/Type
05:56AM 42.7483 -73.8228 283° West 132 152 1,300  Level Boston Center
05:57AM 42.7583 -73.8681 287° West 165 190 2,700 1,883 Climbing Boston Center
05:59AM 42.8069 -74.1483 281° West  Level FlightAware Approximate
05:59AM 42.8050 -73.9514 307° West 221 254 5,600  Level Boston Center
06:00AM 42.8242 -74.2688 281° West  Level FlightAware Approximate
06:00AM 42.8500 -74.0261 309° West 238 274 8,700  Level Boston Center
06:01AM 42.8426 -74.3889 283° West  Level FlightAware Approximate
06:01AM 42.9008 -74.1039 312° West 257 296 11,200  Level Boston Center
06:02AM 42.8626 -74.5086 283° West  Level FlightAware Approximate
06:02AM 42.9247 -74.1894 291° West 283 326 12,600  Level Boston Center
06:03AM 42.9453 -74.3347 281° West 323 372 14,700 1,800 Climbing Boston Center
06:04AM 42.9597 -74.4600 279° West 338 389 16,200 1,550 Climbing Boston Center
06:05AM 42.9761 -74.5911 280° West 348 400 17,800 1,450 Climbing Boston Center
06:06AM 42.9944 -74.7225 281° West 353 406 19,100 1,150 Climbing Boston Center
06:07AM 43.0103 -74.8594 279° West 358 412 20,100 1,000 Climbing Boston Center
06:08AM 43.0261 -74.9992 279° West 364 419 21,100 950 Climbing Boston Center
06:09AM 43.0400 -75.1219 279° West 369 425 22,000 950 Climbing Boston Center
06:10AM 43.0572 -75.2647 279° West 374 430 23,000 950 Climbing Boston Center
06:11AM 43.0744 -75.4106 279° West 379 436 23,900 850 Climbing Boston Center
06:12AM 43.0894 -75.5536 278° West 379 436 24,700 800 Climbing Boston Center
06:13AM 43.1061 -75.6994 279° West 384 442 25,500 800 Climbing Boston Center
06:14AM 43.1208 -75.8425 278° West 389 448 26,300 615 Climbing Boston Center
06:17AM 43.1539 -76.2911 276° West 366 421 28,000 418 Climbing Cleveland Center
06:18AM 43.1406 -76.4372 263° West 408 470 28,000  Level Cleveland Center
06:19AM 43.1292 -76.5889 264° West 408 470 28,000  Level Cleveland Center
06:20AM 43.1150 -76.7264 262° West 413 475 28,000  Level Cleveland Center
06:21AM 43.0997 -76.8981 263° West 427 491 28,000  Level Cleveland Center
06:22AM 43.0858 -77.0494 263° West 432 497 28,000  Level Cleveland Center
06:23AM 43.0736 -77.2036 264° West 421 484 28,000  Level Cleveland Center
06:24AM 43.0592 -77.3581 263° West 416 479 28,000  Level Cleveland Center
06:25AM 43.0428 -77.5150 262° West 416 479 28,000  Level Cleveland Center
06:26AM 43.0300 -77.6692 264° West 416 479 28,000  Level Cleveland Center
06:27AM 43.0131 -77.8261 262° West 416 479 28,000  Level Cleveland Center
06:28AM 42.9978 -77.9800 262° West 416 479 28,000  Level Cleveland Center
06:29AM 42.9825 -78.1369 262° West 422 486 28,000  Level Cleveland Center
06:30AM 42.9669 -78.2936 262° West 422 486 28,000  Level Cleveland Center
06:31AM 42.9511 -78.4472 262° West 422 486 28,000  Level Cleveland Center
06:32AM 42.9353 -78.6039 262° West 421 484 28,000  Level Cleveland Center
06:33AM 42.9147 -78.7575 260° West 421 484 28,000  Level Cleveland Center
06:34AM 42.8922 -78.9142 259° West 421 484 28,000  Level Cleveland Center
06:35AM 42.8733 -79.0647 260° West 421 484 28,000  Level Cleveland Center
06:36AM 42.8461 -79.2239 257° West 421 484 28,000  Level Cleveland Center
06:37AM 42.8292 -79.3772 261° West 421 484 28,000  Level Cleveland Center
06:38AM 42.8036 -79.5306 257° West 421 484 28,000  Level Cleveland Center
06:39AM 42.7797 -79.6894 258° West 421 484 28,000  Level Cleveland Center
06:40AM 42.7558 -79.8422 258° West 421 484 28,000  Level Cleveland Center
06:41AM 42.7464 -80.0064 266° West 437 503 28,000  Level Cleveland Center
06:42AM 42.7386 -80.1619 266° West 432 497 28,000  Level Cleveland Center
06:43AM 42.7328 -80.3061 267° West 427 491 28,000  Level Cleveland Center
06:44AM 42.7269 -80.4672 267° West 426 490 28,000  Level Cleveland Center
06:45AM 42.7186 -80.6228 266° West 426 490 28,000  Level Cleveland Center
06:46AM 42.7100 -80.7811 266° West 426 490 28,000  Level Cleveland Center
06:47AM 42.7014 -80.9392 266° West 419 482 28,000  Level Cleveland Center
06:48AM 42.6842 -81.0944 261° West 425 489 28,000 -450 Level Cleveland Center
06:49AM 42.6667 -81.2467 261° West 420 483 27,100 -950 Descending Cleveland Center
06:50AM 42.6492 -81.3989 261° West 420 483 26,100 -1,000 Descending Cleveland Center
06:51AM 42.6292 -81.5594 260° West 404 465 25,100 -1,150 Descending Cleveland Center
06:52AM 42.6111 -81.7089 261° West 404 465 23,800 -1,450 Descending Cleveland Center
06:53AM 42.5950 -81.8356 260° West 398 458 22,200 -1,850 Descending Cleveland Center
06:54AM 42.5769 -81.9761 260° West 392 451 20,100 -2,100 Descending Cleveland Center
06:55AM 42.5606 -82.1139 261° West 385 443 18,000 -2,341 Descending Cleveland Center
06:55AM 42.5553 -82.1814 264° West 366 421 16,900 -2,000 Descending Cleveland Center
06:56AM 42.5461 -82.2458 259° West 373 429 16,000 -1,964 Descending Cleveland Center
06:56AM 42.5414 -82.2936 262° West 342 394 15,100 -2,231 Descending Cleveland Center
06:57AM 42.5247 -82.4228 260° West 341 392 13,100 -1,689 Descending Cleveland Center
06:58AM 42.5153 -82.4958 260° West 348 400 12,200 -1,000 Descending Cleveland Center
06:58AM 42.5036 -82.5547 255° West 332 382 12,000 -200 Descending Cleveland Center
06:59AM 42.4839 -82.6131 245° Southwest 343 395 12,000 -492 Level Cleveland Center
06:59AM 42.4597 -82.6800 244° Southwest 340 391 11,500 -900 Descending Cleveland Center
07:00AM 42.4422 -82.7272 243° Southwest 343 395 11,100 -1,082 Descending Cleveland Center
07:00AM 42.4244 -82.7828 247° West 292 336 10,400 -1,300 Descending Cleveland Center
07:01AM 42.4092 -82.8244 244° Southwest 322 371 9,800 -1,532 Descending Cleveland Center
07:02AM 42.3969 -82.9197 260° West 283 326 8,000 -2,074 Descending Cleveland Center
07:02AM 42.3958 -82.9647 268° West 251 289 7,000 -1,600 Descending Cleveland Center
07:03AM 42.3867 -83.0147 256° West 263 303 6,400 -984 Descending Cleveland Center
07:03AM 42.3836 -83.0597 265° West 259 298 6,000 -400 Descending Cleveland Center
07:04AM 42.3761 -83.1072 258° West 258 297 6,000 -590 Level Cleveland Center
07:04AM 42.3711 -83.1547 262° West 242 278 5,400 -1,565 Descending Cleveland Center

Login

Don't have an account? Register now (free) for customized features, flight alerts, and more!